Location: Long Geng
(2.6167°N, 114.1333°E)
Time: 00:25:39
(UTC+00:00)

Maqsat-H - Pass Details

Date: 14 May 2021
Orbit: 574 x 26400 km, 7.7° (Epoch: 12 June)

Event Time Altitude Azimuth Distance (km) Brightness Sun altitude
Rises 13:03:48 0° 265° (W) 7,255 7.7 -37.3°
Reaches altitude 10° 13:11:04 10° 256° (WSW) 4,123 6.2 -38.9°
Enters shadow 13:15:33 22° 235° (SW) 2,175 4.5 -39.9°
